P/2010 A2 ( LINEAR )

Japanese version
Home page
Updated on December 30, 2013

---------------------------------------------------------------------

* Profile

Discovery Date January 6, 2010
Magnitude 19.9 mag
Discoverer Lincoln Laboratory Near-Earth Asteroid Research project

* Pictures

* Orbital Elements

Epoch 2009 Nov. 25.0 TT = JDT 2455160.5
T 2009 Dec. 4.37816 TT                                  MPC
q   2.0054458            (2000.0)            P               Q
n   0.28438157     Peri.  133.10486     -0.06106803     -0.99641615
a   2.2901737      Node   320.28369     +0.88711098     -0.02730525
e   0.1243259      Incl.    5.25539     +0.45749842     -0.08005794
P   3.47
From 77 observations 2009 Dec. 15-2012 Oct. 14, mean residual 0".7.

* Magnitudes Graph

        m1 = 2.5 + 5 log d + 50 log r

        Nuclear magnitude:
        H = 21.3  G = 0.15

---------------------------------------------------------------------

The orbital elements are published on M.P.E.C. 2013-X73.
The magnitudes graphs are made with Comet for Windows.

---------------------------------------------------------------------

Copyright(C) Seiichi Yoshida (comet@aerith.net). All rights reserved.